This is the latest recevied weather packets stored in our database for station/object KE5VT. If no packets are shown the sender has not sent any weather packets the latest 1 day(s).
| Time | Temp. | Humidity | Pressure | Rain* | Wind** | Luminosity | Snow |
|---|---|---|---|---|---|---|---|
| 1836274790 | 22.78° C | 78% | 1014.3 hPa | 0 mm | 0 m/s | 0 W/m² | - |
| 1836274488 | 22.78° C | 79% | 1014.3 hPa | 0 mm | 0 m/s | 0 W/m² | - |
| 1836274342 | 22.78° C | 78% | 1014.4 hPa | 0 mm | 0 m/s | 0 W/m² | - |
| 1836274186 | 23.33° C | 78% | 1014.3 hPa | 0 mm | 0 m/s | 0 W/m² | - |
| 1836273886 | 23.33° C | 78% | 1014.3 hPa | 0 mm | 0 m/s | 0 W/m² | - |
| 1778096601 | 25.56° C | 64% | 1009.3 hPa | 0 mm | 1.79 m/s, 269° | 195 W/m² | - |
| 1778096299 | 25° C | 64% | 1009.3 hPa | 0 mm | 0 m/s | 121 W/m² | - |
| 1778095996 | 25° C | 64% | 1009.5 hPa | 0 mm | 0 m/s | 424 W/m² | - |
| 1778095692 | 25.56° C | 62% | 1009.1 hPa | 0 mm | 2.68 m/s, 279° | 632 W/m² | - |
| 1778095389 | 25° C | 65% | 1009.3 hPa | 0 mm | 1.79 m/s, 288° | 589 W/m² | - |
| 1778095086 | 24.44° C | 65% | 1009.3 hPa | 0 mm | 1.34 m/s, 133° | 677 W/m² | - |
| 1778094782 | 24.44° C | 66% | 1009.4 hPa | 0 mm | 0.89 m/s, 318° | 417 W/m² | - |
| 1778094479 | 24.44° C | 66% | 1009.3 hPa | 0 mm | 1.34 m/s, 254° | 200 W/m² | - |
| 1778094176 | 24.44° C | 66% | 1009.3 hPa | 0 mm | 0 m/s | 187 W/m² | - |
| 1778093873 | 24.44° C | 67% | 1009.5 hPa | 0 mm | 0.89 m/s, 221° | 193 W/m² | - |
| 1778093569 | 24.44° C | 65% | 1009.3 hPa | 0 mm | 0 m/s | 205 W/m² | - |
| 1778093266 | 24.44° C | 65% | 1009.4 hPa | 0 mm | 2.68 m/s, 281° | 316 W/m² | - |
| 1778092964 | 23.89° C | 66% | 1009.7 hPa | 0 mm | 0.89 m/s, 173° | 289 W/m² | - |
| 1778092661 | 23.89° C | 65% | 1009.7 hPa | 0 mm | 2.24 m/s, 271° | 432 W/m² | - |
| 1778092361 | 23.89° C | 67% | 1009.7 hPa | 0 mm | 2.24 m/s, 263° | 380 W/m² | - |
| 1778092059 | 23.89° C | 67% | 1009.7 hPa | 0 mm | 0.45 m/s, 251° | 262 W/m² | - |
| 1778091756 | 23.33° C | 68% | 1010 hPa | 0 mm | 1.34 m/s, 266° | 289 W/m² | - |
| 1778091453 | 23.33° C | 67% | 1009.9 hPa | 0 mm | 0 m/s | 216 W/m² | - |
| 1778091151 | 22.78° C | 68% | 1009.9 hPa | 0 mm | 0.45 m/s, 337° | 336 W/m² | - |
| 1778090848 | 22.78° C | 69% | 1010.6 hPa | 0 mm | 3.58 m/s, 279° | 225 W/m² | - |
* Rain latest hour (hover to see other rain measurements)
** Current wind speed in m/s (hover to see current wind gust speed)